Location: Newark
(48.6461°N, 4.3644°W)
Time: 13:51:39
(UTC+00:00)

Transit 4A - Pass Details

Date: 24 January 2020
Orbit: 872 x 973 km, 66.8° (Epoch: 22 February)

Event Time Altitude Azimuth Distance (km) Brightness Sun altitude
Rises 09:27:26 0° 264° (W) 3,524 10.6 10.9°
Reaches altitude 10° 09:30:33 10° 279° (W) 2,569 9.8 11.3°
Maximum altitude 09:35:07 22° 330° (NNW) 1,821 9.0 11.8°
Drops below altitude 10° 09:39:39 10° 21° (NNE) 2,540 10.0 12.3°
Sets 09:42:43 0° 36° (NE) 3,475 10.8 12.6°
